[[{"header":{"parameterUnit":"m.s-1","parameterCategory":1,"la1":30.2992,"la2":30.254,"lo1":-89.0895,"lo2":-89.0443,"dy":0.0025,"dx":0.0025,"nx":19,"ny":19,"refTime":"2026-04-01T21:00:00:Z","depth":0,"parameterNumber":2,"parameterNumberName":"U-component_of_WINDS"},"data":[0,0,0,-4.7885,-4.7888,-4.8028,-4.8028,-4.8212,-4.8214,0,0,0,0,0,0,0,0,0,0,0,-4.7847,-4.7848,-4.7884,-4.7888,-4.8028,-4.8029,-4.8212,-4.8214,0,0,0,0,0,0,0,0,0,0,0,-4.7846,-4.7848,-4.785,-4.7888,-4.8028,-4.8029,-4.8211,-4.8104,0,0,0,0,0,0,0,0,0,0,-4.7967,-4.7936,-4.7847,-4.785,-4.7889,-4.8028,-4.8029,-4.8098,-4.811,-4.8151,0,-4.8189,0,-4.8205,-4.8227,-4.8227,0,0,0,-4.7884,-4.7926,-4.7961,-4.785,-4.7891,-4.8028,-4.7964,-4.8105,-4.8119,-4.8167,-4.8192,-4.8198,-4.8208,-4.8228,-4.8229,-4.8477,-4.8478,0,0,-4.7877,-4.7874,-4.7951,-4.797,-4.795,-4.7959,-4.7968,-4.8113,-4.8139,-4.8192,-4.8203,-4.8211,-4.8229,-4.823,-4.8475,-4.8477,0,0,0,-4.7857,-4.7868,-4.7899,-4.7962,-4.7987,-4.7963,-4.7974,-4.8133,-4.8143,-4.8204,-4.8213,-4.823,-4.8232,-4.8474,-4.8476,-4.8537,0,0,0,-4.7852,-4.7857,-4.7896,-4.7895,-4.7985,-4.8062,-4.799,-4.8133,-4.815,-4.8212,-4.823,-4.8234,-4.8472,-4.8475,-4.8532,-4.8565,0,0,0,-4.7836,-4.7855,-4.7877,-4.7895,-4.7955,-4.806,-4.8079,-4.8137,-4.8155,-4.8227,-4.8235,-4.8471,-4.8475,-4.8528,-4.8558,-4.8628,0,0,0,-4.7818,-4.7928,-4.7878,-4.8004,-4.7954,-4.8098,-4.8078,-4.8184,-4.8254,-4.8231,-4.8473,-4.8476,-4.8526,-4.8554,-4.8623,-4.8684,-4.871,0,0,-4.7955,-4.7945,-4.802,-4.7978,-4.813,-4.8077,-4.8237,-4.8303,-4.8312,-4.8421,-4.8427,-4.8534,-4.8557,-4.8627,-4.8862,-4.8882,0,0,0,-4.8062,-4.8115,-4.8156,-4.8223,-4.8278,-4.8326,-4.8369,-4.8393,-4.8486,-4.8368,-4.8579,-4.8594,-4.8635,-4.8664,-4.8681,-4.8715,-4.849,-4.849,-4.8489,-4.8248,-4.8257,-4.838,-4.8406,-4.8471,-4.8515,-4.8568,-4.8608,-4.8596,-4.8646,-4.8677,-4.8819,-4.8853,-4.8866,-4.8902,-4.8712,-4.8713,-4.8713,-4.8713,-4.8448,-4.8524,-4.8508,-4.8622,-4.863,-4.8725,-4.8772,-4.8761,-4.885,-4.8796,-4.8832,-4.8769,-4.8888,-4.892,-4.8718,-4.8717,-4.8716,-4.8716,-4.8716,-4.8568,-4.8606,-4.8636,-4.8734,-4.8809,-4.8831,-4.8918,-4.8923,-4.8927,-4.8963,-4.8996,-4.8995,-4.8992,-4.8979,-4.898,-4.898,-4.8981,-4.8981,-4.8981,-4.868,-4.8712,-4.8785,-4.8854,-4.8898,-4.8957,-4.9004,-4.9047,-4.9095,-4.9091,-4.9091,-4.9073,-4.89,-4.8854,-4.8989,-4.8988,-4.8987,-4.8986,-4.8985,-4.8873,-4.8831,-4.8944,-4.8988,-4.907,-4.9143,-4.915,-4.9237,-4.9274,-4.9316,-4.9292,-4.9165,-4.9153,-4.9139,-4.9101,-4.9291,-4.9291,-4.9291,-4.9291,-4.8972,-4.8969,-4.9085,-4.9156,-4.9226,-4.9243,-4.937,-4.9408,-4.9441,-4.9464,-4.9438,-4.939,-4.9375,-4.9372,-4.9353,-4.9318,-4.9559,-4.9559,-4.956,-4.9091,-4.9094,-4.9201,-4.9234,-4.9299,-4.9354,-4.9473,-4.9554,-4.9582,-4.957,-4.9481,-4.947,-4.9392,-4.9367,-4.9348,-4.9319,-4.9254,0,0]},{"header":{"parameterUnit":"m.s-1","parameterCategory":1,"la1":30.2992,"la2":30.254,"lo1":-89.0895,"lo2":-89.0443,"dy":0.0025,"dx":0.0025,"nx":19,"ny":19,"refTime":"2026-04-01T21:00:00:Z","depth":0,"parameterNumber":3,"parameterNumberName":"V-component_of_WINDS"},"data":[0,0,0,3.5662,3.5665,3.5766,3.5766,3.5895,3.5896,0,0,0,0,0,0,0,0,0,0,0,3.5634,3.5635,3.5662,3.5665,3.5766,3.5766,3.5895,3.5896,0,0,0,0,0,0,0,0,0,0,0,3.5634,3.5635,3.5636,3.5665,3.5766,3.5766,3.5895,3.5818,0,0,0,0,0,0,0,0,0,0,3.572,3.5695,3.5634,3.5636,3.5666,3.5766,3.5766,3.5814,3.5823,3.585,0,3.5876,0,3.5889,3.5905,3.5906,0,0,0,3.5663,3.5688,3.5715,3.5636,3.5667,3.5765,3.572,3.5819,3.5829,3.5861,3.5878,3.5883,3.5891,3.5906,3.5907,3.6076,3.6077,0,0,3.5657,3.5652,3.5708,3.5721,3.5708,3.5716,3.5723,3.5825,3.5842,3.5879,3.5886,3.5893,3.5907,3.5908,3.6076,3.6077,0,0,0,3.5643,3.5648,3.5672,3.5716,3.5734,3.5719,3.5727,3.5837,3.5846,3.5887,3.5895,3.5908,3.5909,3.6075,3.6076,3.6117,0,0,0,3.5639,3.564,3.567,3.5668,3.5732,3.5787,3.5737,3.5839,3.585,3.5894,3.5908,3.5911,3.6074,3.6075,3.6114,3.6136,0,0,0,3.5627,3.5638,3.5654,3.5667,3.5711,3.5786,3.58,3.5841,3.5855,3.5906,3.5911,3.6073,3.6075,3.6111,3.6131,3.6181,0,0,0,3.5611,3.5686,3.5654,3.5741,3.571,3.5811,3.5799,3.5874,3.5922,3.5908,3.6074,3.6076,3.611,3.6129,3.6178,3.6222,3.624,0,0,3.5702,3.5697,3.5748,3.5723,3.5829,3.5796,3.5907,3.5954,3.5962,3.6037,3.6042,3.6115,3.6131,3.618,3.6341,3.6356,0,0,0,3.5775,3.5812,3.5841,3.5889,3.5929,3.5966,3.5998,3.6016,3.6081,3.6001,3.6146,3.6156,3.6185,3.6206,3.6218,3.6244,3.6086,3.6085,3.6085,3.5895,3.5905,3.5991,3.6013,3.606,3.6094,3.6132,3.6162,3.6154,3.6189,3.6211,3.6308,3.6333,3.6342,3.6369,3.6235,3.6235,3.6235,3.6235,3.603,3.6085,3.6078,3.6159,3.6168,3.6235,3.6272,3.6265,3.6329,3.6291,3.6317,3.6276,3.6358,3.6382,3.6239,3.6238,3.6238,3.6237,3.6237,3.611,3.6138,3.6162,3.6234,3.6289,3.6308,3.6371,3.6376,3.6381,3.6407,3.6432,3.6431,3.6431,3.6418,3.6419,3.6419,3.6419,3.642,3.642,3.6184,3.621,3.6263,3.6316,3.6349,3.6393,3.643,3.6461,3.6498,3.6497,3.6497,3.6487,3.6364,3.6334,3.6425,3.6424,3.6423,3.6423,3.6423,3.6318,3.629,3.6373,3.6406,3.6469,3.6524,3.6531,3.6597,3.6624,3.6655,3.6641,3.6549,3.6542,3.6533,3.6507,3.6638,3.6638,3.6638,3.6638,3.6386,3.6385,3.6473,3.6526,3.6579,3.6595,3.6689,3.6719,3.6745,3.6762,3.6744,3.6711,3.6701,3.67,3.6687,3.6663,3.6831,3.6831,3.6831,3.647,3.6474,3.6553,3.6581,3.6632,3.6675,3.6763,3.6824,3.6847,3.6839,3.6776,3.6768,3.6715,3.6697,3.6686,3.6665,3.6622,0,0]}]]